Time,TemperatureF,DewpointF,PressureIn,WindDirection,WindDirectionDegrees,WindSpeedMPH,WindSpeedGustMPH,Humidity,HourlyPrecipIn,Conditions,Clouds,dailyrainin,SolarRadiationWatts/m^2,SoftwareType,DateUTC
2013-07-07 00:01:00,63.0,59.0,-100.00,South,169,6.0,9.0,87,0.00,,,0.00,0.000000,,2013-07-07 04:01:00,
2013-07-07 00:02:00,63.0,59.0,-100.00,South,169,6.0,9.0,87,0.00,,,0.00,0.000000,,2013-07-07 04:02:00,
2013-07-07 00:11:00,63.0,59.0,-100.00,South,169,6.0,9.0,87,0.00,,,0.00,0.000000,,2013-07-07 04:11:00,
2013-07-07 00:41:00,59.0,58.0,-100.00,South,169,2.0,7.0,95,0.00,,,0.00,0.000000,,2013-07-07 04:41:00,
2013-07-07 00:51:00,59.0,58.0,-100.00,South,169,2.0,7.0,95,0.00,,,0.00,0.000000,,2013-07-07 04:51:00,
2013-07-07 01:01:00,59.0,58.0,-100.00,South,169,2.0,7.0,95,0.00,,,0.00,0.000000,,2013-07-07 05:01:00,
2013-07-07 01:11:00,59.0,58.0,-100.00,South,169,2.0,7.0,95,0.00,,,0.00,0.000000,,2013-07-07 05:11:00,
2013-07-07 01:41:00,59.0,58.0,-100.00,ESE,123,2.0,4.0,98,0.00,,,0.00,0.000000,,2013-07-07 05:41:00,
2013-07-07 01:51:00,59.0,58.0,-100.00,ESE,123,2.0,4.0,98,0.00,,,0.00,0.000000,,2013-07-07 05:51:00,
2013-07-07 02:01:00,59.0,58.0,-100.00,ESE,123,2.0,4.0,98,0.00,,,0.00,0.000000,,2013-07-07 06:01:00,
2013-07-07 02:11:00,59.0,58.0,-100.00,ESE,123,2.0,4.0,98,0.00,,,0.00,0.000000,,2013-07-07 06:11:00,
2013-07-07 02:43:00,59.0,58.0,-100.00,SSE,152,5.0,6.0,98,0.00,,,0.00,0.000000,,2013-07-07 06:43:00,
2013-07-07 02:52:00,59.0,58.0,-100.00,SSE,152,5.0,6.0,98,0.00,,,0.00,0.000000,,2013-07-07 06:52:00,
2013-07-07 03:02:00,59.0,58.0,-100.00,SSE,152,5.0,6.0,98,0.00,,,0.00,0.000000,,2013-07-07 07:02:00,
2013-07-07 03:11:00,59.0,58.0,-100.00,SSE,152,5.0,6.0,98,0.00,,,0.00,0.000000,,2013-07-07 07:11:00,
2013-07-07 03:44:00,59.0,58.0,-100.00,SSE,152,4.0,6.0,98,0.00,,,0.00,0.000000,,2013-07-07 07:44:00,
2013-07-07 03:53:00,59.0,58.0,-100.00,SSE,152,4.0,6.0,98,0.00,,,0.00,0.000000,,2013-07-07 07:53:00,
2013-07-07 04:02:00,59.0,58.0,-100.00,SSE,152,4.0,6.0,98,0.00,,,0.00,0.000000,,2013-07-07 08:02:00,
2013-07-07 04:12:00,59.0,58.0,-100.00,SSE,152,4.0,6.0,98,0.00,,,0.00,0.000000,,2013-07-07 08:12:00,
2013-07-07 04:44:00,58.0,58.0,-100.00,SE,126,4.0,5.0,99,0.00,,,0.00,0.000000,,2013-07-07 08:44:00,
2013-07-07 04:53:00,58.0,58.0,-100.00,SE,126,4.0,5.0,99,0.00,,,0.00,0.000000,,2013-07-07 08:53:00,
2013-07-07 05:02:00,58.0,58.0,-100.00,SE,126,4.0,5.0,99,0.00,,,0.00,0.000000,,2013-07-07 09:02:00,
2013-07-07 05:12:00,58.0,58.0,-100.00,SE,126,4.0,5.0,99,0.00,,,0.00,0.000000,,2013-07-07 09:12:00,
2013-07-07 06:43:00,59.0,59.0,-100.00,SSE,164,4.0,4.0,99,-99.99,,,-99.99,4.000000,,2013-07-07 10:43:00,
2013-07-07 06:52:00,59.0,59.0,-100.00,SSE,164,4.0,4.0,99,-99.99,,,-99.99,4.000000,,2013-07-07 10:52:00,
2013-07-07 07:02:00,59.0,59.0,-100.00,SSE,164,4.0,4.0,99,-99.99,,,-99.99,4.000000,,2013-07-07 11:02:00,
2013-07-07 07:12:00,59.0,59.0,-100.00,SSE,164,4.0,4.0,99,-99.99,,,-99.99,4.000000,,2013-07-07 11:12:00,
2013-07-07 07:43:00,61.0,61.0,-100.00,SE,139,4.0,5.0,99,0.00,,,0.00,45.000000,,2013-07-07 11:43:00,
2013-07-07 07:53:00,61.0,61.0,-100.00,SE,139,4.0,5.0,99,0.00,,,0.00,45.000000,,2013-07-07 11:53:00,
2013-07-07 08:02:00,61.0,61.0,-100.00,SE,139,4.0,5.0,99,0.00,,,0.00,45.000000,,2013-07-07 12:02:00,
2013-07-07 08:12:00,61.0,61.0,-100.00,SE,139,4.0,5.0,99,0.00,,,0.00,45.000000,,2013-07-07 12:12:00,
2013-07-07 08:43:00,67.0,65.0,-100.00,SSE,168,4.0,6.0,92,0.00,,,0.00,165.000000,,2013-07-07 12:43:00,
2013-07-07 08:52:00,67.0,65.0,-100.00,SSE,168,4.0,6.0,92,0.00,,,0.00,165.000000,,2013-07-07 12:52:00,
2013-07-07 09:02:00,67.0,65.0,-100.00,SSE,168,4.0,6.0,92,0.00,,,0.00,165.000000,,2013-07-07 13:02:00,
2013-07-07 09:12:00,67.0,65.0,-100.00,SSE,168,4.0,6.0,92,0.00,,,0.00,165.000000,,2013-07-07 13:12:00,
2013-07-07 09:43:00,70.0,66.0,-100.00,SW,229,6.0,11.0,86,0.00,,,0.00,246.000000,,2013-07-07 13:43:00,
2013-07-07 09:52:00,70.0,66.0,-100.00,SW,229,6.0,11.0,86,0.00,,,0.00,246.000000,,2013-07-07 13:52:00,
2013-07-07 10:02:00,70.0,66.0,-100.00,SW,229,6.0,11.0,86,0.00,,,0.00,246.000000,,2013-07-07 14:02:00,
2013-07-07 10:12:00,70.0,66.0,-100.00,SW,229,6.0,11.0,86,0.00,,,0.00,246.000000,,2013-07-07 14:12:00,
2013-07-07 10:43:00,75.0,68.0,-100.00,SW,230,6.0,11.0,78,0.00,,,0.00,429.000000,,2013-07-07 14:43:00,
2013-07-07 10:53:00,75.0,68.0,-100.00,SW,230,6.0,11.0,78,0.00,,,0.00,429.000000,,2013-07-07 14:53:00,
2013-07-07 11:02:00,75.0,68.0,-100.00,SW,230,6.0,11.0,78,0.00,,,0.00,429.000000,,2013-07-07 15:02:00,
2013-07-07 11:11:00,75.0,68.0,-100.00,SW,230,6.0,11.0,78,0.00,,,0.00,429.000000,,2013-07-07 15:11:00,
2013-07-07 11:43:00,78.0,69.0,-100.00,West,259,5.0,12.0,73,0.00,,,0.00,743.000000,,2013-07-07 15:43:00,
2013-07-07 11:52:00,78.0,69.0,-100.00,West,259,5.0,12.0,73,0.00,,,0.00,743.000000,,2013-07-07 15:52:00,
2013-07-07 12:02:00,78.0,69.0,-100.00,West,259,5.0,12.0,73,0.00,,,0.00,743.000000,,2013-07-07 16:02:00,
2013-07-07 12:11:00,78.0,69.0,-100.00,West,259,5.0,12.0,73,0.00,,,0.00,743.000000,,2013-07-07 16:11:00,
2013-07-07 12:43:00,81.0,69.0,-100.00,South,175,3.0,8.0,66,0.00,,,0.00,680.000000,,2013-07-07 16:43:00,
2013-07-07 12:53:00,81.0,69.0,-100.00,South,175,3.0,8.0,66,0.00,,,0.00,680.000000,,2013-07-07 16:53:00,
2013-07-07 13:02:00,81.0,69.0,-100.00,South,175,3.0,8.0,66,0.00,,,0.00,680.000000,,2013-07-07 17:02:00,
2013-07-07 13:12:00,81.0,69.0,-100.00,South,175,3.0,8.0,66,0.00,,,0.00,680.000000,,2013-07-07 17:12:00,
2013-07-07 13:43:00,83.0,69.0,-100.00,West,268,5.0,8.0,63,0.00,,,0.00,669.000000,,2013-07-07 17:43:00,
2013-07-07 13:53:00,83.0,69.0,-100.00,West,268,5.0,8.0,63,0.00,,,0.00,669.000000,,2013-07-07 17:53:00,
2013-07-07 14:02:00,83.0,69.0,-100.00,West,268,5.0,8.0,63,0.00,,,0.00,669.000000,,2013-07-07 18:02:00,
2013-07-07 14:12:00,83.0,69.0,-100.00,West,268,5.0,8.0,63,0.00,,,0.00,669.000000,,2013-07-07 18:12:00,
2013-07-07 14:43:00,77.0,69.0,-100.00,NNE,15,6.0,9.0,77,0.00,,,0.00,310.000000,,2013-07-07 18:43:00,
2013-07-07 14:53:00,77.0,69.0,-100.00,NNE,15,6.0,9.0,77,0.00,,,0.00,310.000000,,2013-07-07 18:53:00,
2013-07-07 15:01:00,77.0,69.0,-100.00,NNE,15,6.0,9.0,77,0.00,,,0.00,310.000000,,2013-07-07 19:01:00,
2013-07-07 15:11:00,77.0,69.0,-100.00,NNE,15,6.0,9.0,77,0.00,,,0.00,310.000000,,2013-07-07 19:11:00,
2013-07-07 15:43:00,74.0,71.0,-100.00,ESE,108,6.0,11.0,89,0.03,,,0.03,144.000000,,2013-07-07 19:43:00,
2013-07-07 15:54:00,74.0,71.0,-100.00,ESE,108,6.0,11.0,89,0.03,,,0.03,144.000000,,2013-07-07 19:54:00,
2013-07-07 16:02:00,74.0,71.0,-100.00,ESE,108,6.0,11.0,89,0.03,,,0.03,144.000000,,2013-07-07 20:02:00,
2013-07-07 16:11:00,74.0,71.0,-100.00,ESE,108,6.0,11.0,89,0.03,,,0.03,144.000000,,2013-07-07 20:11:00,
2013-07-07 16:42:00,81.0,71.0,-100.00,NNE,27,2.0,10.0,71,0.00,,,0.03,896.000000,,2013-07-07 20:42:00,
2013-07-07 16:53:00,81.0,71.0,-100.00,NNE,27,2.0,10.0,71,0.00,,,0.03,896.000000,,2013-07-07 20:53:00,
2013-07-07 17:02:00,81.0,71.0,-100.00,NNE,27,2.0,10.0,71,0.00,,,0.03,896.000000,,2013-07-07 21:02:00,
2013-07-07 17:11:00,81.0,71.0,-100.00,NNE,27,2.0,10.0,71,0.00,,,0.03,896.000000,,2013-07-07 21:11:00,
2013-07-07 17:44:00,77.0,70.0,-100.00,ESE,123,5.0,7.0,79,0.00,,,0.03,305.000000,,2013-07-07 21:44:00,
2013-07-07 17:53:00,77.0,70.0,-100.00,ESE,123,5.0,7.0,79,0.00,,,0.03,305.000000,,2013-07-07 21:53:00,
2013-07-07 18:01:00,77.0,70.0,-100.00,ESE,123,5.0,7.0,79,0.00,,,0.03,305.000000,,2013-07-07 22:01:00,
2013-07-07 18:11:00,77.0,70.0,-100.00,ESE,123,5.0,7.0,79,0.00,,,0.03,305.000000,,2013-07-07 22:11:00,
2013-07-07 18:44:00,74.0,72.0,-100.00,East,80,4.0,7.0,92,0.07,,,-99.99,124.000000,,2013-07-07 22:44:00,
2013-07-07 18:54:00,74.0,72.0,-100.00,East,80,4.0,7.0,92,0.07,,,-99.99,124.000000,,2013-07-07 22:54:00,
2013-07-07 19:02:00,74.0,72.0,-100.00,East,80,4.0,7.0,92,0.07,,,-99.99,124.000000,,2013-07-07 23:02:00,
2013-07-07 19:12:00,74.0,72.0,-100.00,East,80,4.0,7.0,92,0.07,,,-99.99,124.000000,,2013-07-07 23:12:00,
2013-07-07 19:43:00,77.0,71.0,-100.00,SSE,153,4.0,6.0,82,0.00,,,0.10,311.000000,,2013-07-07 23:43:00,
2013-07-07 19:53:00,77.0,71.0,-100.00,SSE,153,4.0,6.0,82,0.00,,,0.10,311.000000,,2013-07-07 23:53:00,
2013-07-07 20:02:00,77.0,71.0,-100.00,SSE,153,4.0,6.0,82,0.00,,,0.10,311.000000,,2013-07-08 00:02:00,
2013-07-07 20:12:00,77.0,71.0,-100.00,SSE,153,4.0,6.0,82,0.00,,,0.10,311.000000,,2013-07-08 00:12:00,
2013-07-07 20:43:00,75.0,69.0,-100.00,SSW,205,6.0,9.0,83,0.00,,,-99.99,185.000000,,2013-07-08 00:43:00,
2013-07-07 20:53:00,75.0,69.0,-100.00,SSW,205,6.0,9.0,83,0.00,,,-99.99,185.000000,,2013-07-08 00:53:00,
2013-07-07 21:01:00,75.0,69.0,-100.00,SSW,205,6.0,9.0,83,0.00,,,-99.99,185.000000,,2013-07-08 01:01:00,
2013-07-07 21:11:00,75.0,69.0,-100.00,SSW,205,6.0,9.0,83,0.00,,,-99.99,185.000000,,2013-07-08 01:11:00,
2013-07-07 21:43:00,73.0,69.0,-100.00,South,182,4.0,7.0,87,0.00,,,0.10,55.000000,,2013-07-08 01:43:00,
2013-07-07 21:53:00,73.0,69.0,-100.00,South,182,4.0,7.0,87,0.00,,,0.10,55.000000,,2013-07-08 01:53:00,
2013-07-07 22:02:00,73.0,69.0,-100.00,South,182,4.0,7.0,87,0.00,,,0.10,55.000000,,2013-07-08 02:02:00,
2013-07-07 22:11:00,73.0,69.0,-100.00,South,182,4.0,7.0,87,0.00,,,0.10,55.000000,,2013-07-08 02:11:00,
2013-07-07 22:43:00,68.0,67.0,-100.00,SSW,198,4.0,6.0,96,0.00,,,0.10,3.000000,,2013-07-08 02:43:00,
2013-07-07 22:52:00,68.0,67.0,-100.00,SSW,198,4.0,6.0,96,0.00,,,0.10,3.000000,,2013-07-08 02:52:00,
2013-07-07 23:02:00,68.0,67.0,-100.00,SSW,198,4.0,6.0,96,0.00,,,0.10,3.000000,,2013-07-08 03:02:00,
2013-07-07 23:12:00,68.0,67.0,-100.00,SSW,198,4.0,6.0,96,0.00,,,0.10,3.000000,,2013-07-08 03:12:00,
2013-07-07 23:43:00,66.0,65.0,-100.00,WSW,241,1.0,5.0,98,0.00,,,0.10,0.000000,,2013-07-08 03:43:00,
2013-07-07 23:52:00,66.0,65.0,-100.00,WSW,241,1.0,5.0,98,0.00,,,0.10,0.000000,,2013-07-08 03:52:00,